Wind_Speed
2 0 2 2 4 3 5 6 5 6 5 5 5 3 5 7 6 2 10 14 25 23 22 19 13 13 12 12 11 10 9 9 7 7 7 7 7 7 7 7 8 9 10 12 12 12 13 13 12
2 1 1 2 3 3 4 4 10 10 10 8 5 1 1 5 5 8 16 17 23 22 22 18 14 13 12 12 11 10 9 7 7 5 5 6 6 6 7 7 9 10 11 11 13 13 14 14 14
1 1 4 1 2 3 7 9 9 8 4 1 1 3 2 4 4 13 11 23 22 19 18 19 16 13 12 10 11 10 9 8 6 3 3 4 5 7 8 9 10 12 12 13 13 15 15 15 15
2 2 4 2 9 4 11 7 7 6 5 3 2 4 5 2 8 7 21 24 21 19 17 19 17 13 10 10 11 11 9 7 4 3 5 6 7 9 10 11 11 12 12 14 14 14 13 13 11
2 3 2 5 7 5 3 2 3 3 3 2 2 4 6 4 8 17 19 20 19 19 18 18 17 13 12 11 11 11 8 5 3 5 7 8 8 10 11 11 11 12 13 13 13 13 13 11 9
4 3 4 5 8 4 3 2 5 2 2 4 3 6 6 7 12 17 17 17 19 18 18 18 17 14 11 11 11 11 9 7 4 7 8 9 10 10 9 10 11 12 13 13 12 11 11 9 8
6 3 2 4 7 6 5 5 4 3 3 3 6 3 5 10 13 16 16 15 16 16 17 17 15 15 13 10 10 9 9 8 6 8 8 11 10 10 9 10 10 11 12 11 10 8 8 7 7
5 4 4 1 4 4 4 3 4 2 4 6 2 2 7 14 15 16 16 14 15 14 13 15 14 16 12 11 10 8 8 7 7 8 9 11 11 10 9 9 10 10 10 9 7 5 6 6 5
3 3 6 4 2 5 3 2 3 3 5 1 1 2 6 17 18 16 16 16 14 13 12 12 10 10 11 9 9 9 9 10 8 7 10 11 12 10 11 12 10 10 9 9 7 4 3 4 7
4 4 6 4 4 1 1 2 6 6 8 4 4 5 15 20 18 17 16 17 17 15 14 11 11 11 10 9 10 9 10 10 9 10 11 10 14 11 9 10 9 9 8 8 7 5 5 6 2
2 5 5 3 4 1 1 2 3 3 5 1 5 13 18 20 17 16 14 14 16 16 15 14 12 11 11 11 10 11 13 12 10 8 10 9 9 8 8 6 6 6 7 4 3 2 3 2 1
5 3 3 4 3 3 5 1 3 4 4 1 8 14 18 18 16 15 14 14 15 16 15 14 12 12 11 10 10 11 9 14 14 7 10 8 9 9 9 8 8 7 5 3 1 1 1 3 5
4 5 2 1 4 2 3 8 7 4 2 7 13 15 16 15 14 13 12 12 15 16 15 17 13 12 11 11 11 8 8 14 15 9 10 8 8 9 8 9 8 7 3 1 1 1 0 3 5
7 5 1 1 1 0 5 4 4 3 7 10 14 14 14 14 14 13 13 13 14 14 15 16 14 13 12 13 11 7 21 11 10 6 8 9 8 8 8 8 7 5 2 1 1 1 1 3 5
4 6 3 1 1 1 4 8 5 3 11 11 14 13 14 14 14 13 13 13 13 13 15 15 17 15 14 15 10 18 17 10 10 9 10 10 9 10 10 8 6 4 3 1 1 2 4 3 5
7 5 2 4 0 2 5 5 4 7 12 13 15 14 14 15 14 14 13 13 13 13 15 15 17 17 16 15 13 18 14 12 11 12 10 12 10 11 9 7 6 3 3 2 1 2 3 4 4
7 6 5 1 1 1 4 8 5 8 12 13 16 16 16 15 15 15 15 14 14 14 15 16 17 18 18 17 14 19 17 12 13 12 10 10 10 9 9 8 6 3 2 3 3 2 2 3 4
2 5 2 5 3 6 9 10 6 10 14 15 16 17 18 18 18 17 17 16 15 15 15 15 15 16 18 19 18 15 14 17 14 11 11 11 8 10 9 6 8 4 2 3 2 3 3 3 5
6 10 11 8 6 7 8 12 9 8 15 16 18 19 20 21 19 18 19 18 17 16 16 17 16 18 19 18 20 18 17 21 15 15 15 11 11 11 9 6 7 5 4 4 2 2 4 3 6
11 12 12 4 0 8 14 17 8 9 15 18 20 20 23 22 21 22 21 21 20 19 18 18 17 19 19 18 19 19 19 22 16 17 16 12 12 12 10 9 7 8 5 5 2 2 3 4 5
15 15 12 11 11 15 10 14 4 4 10 15 19 21 23 25 25 24 24 24 22 22 21 19 19 20 22 20 22 24 22 20 18 18 19 14 12 11 12 13 10 8 6 6 5 2 2 4 4
15 12 12 12 9 9 1 10 6 4 6 11 16 24 26 27 27 26 25 25 25 24 21 20 19 19 24 26 26 20 25 20 19 16 17 13 13 12 12 14 14 11 7 8 5 5 6 4 4
15 13 11 10 11 10 14 7 9 6 9 9 14 20 23 26 29 30 29 28 26 24 24 23 21 19 23 28 25 27 22 17 15 15 14 14 13 13 11 14 15 15 12 11 12 10 8 7 7
9 10 10 9 11 12 15 10 8 2 3 6 10 2 13 24 29 31 30 28 25 24 24 24 25 23 24 27 31 28 26 20 17 18 15 13 11 12 16 15 13 13 12 13 12 12 13 12 11
11 12 9 11 11 12 1 6 12 14 12 11 10 12 9 15 27 32 33 30 27 27 26 25 26 28 27 27 30 30 28 29 21 17 17 15 15 15 15 17 17 15 14 12 11 11 10 11 11
17 15 11 10 11 10 7 5 5 7 14 14 11 11 9 10 22 31 32 32 31 29 28 27 27 29 30 28 27 28 28 27 28 22 20 17 17 17 15 16 17 15 16 15 14 12 11 11 11
14 12 17 19 14 10 14 16 9 11 8 8 11 5 5 8 16 28 31 32 31 30 30 30 29 29 30 29 27 27 27 28 25 25 22 21 18 16 16 15 17 17 17 16 14 15 14 14 13
16 8 10 11 16 16 12 10 8 7 6 6 4 4 4 5 14 23 30 31 30 29 29 31 29 30 30 29 29 29 28 27 28 25 26 21 20 20 17 15 15 18 19 18 18 17 15 17 15
8 13 13 13 9 10 11 9 8 4 8 8 7 6 6 6 14 21 27 29 29 28 27 30 30 28 28 28 27 27 26 25 26 26 25 24 23 23 24 22 17 16 16 17 18 17 17 18 18
13 15 20 12 17 12 10 12 12 6 10 11 11 8 5 6 15 20 26 27 28 28 28 30 30 29 29 29 30 28 26 24 23 25 25 25 25 23 24 25 25 23 19 19 21 23 20 19 19
Wind_Direction
6 111 291 304 240 256 108 79 110 112 126 73 96 2 15 21 1 47 146 160 163 159 158 156 153 150 151 149 150 146 147 139 135 145 134 119 118 113 109 107 105 100 105 108 112 111 110 111 114
175 306 323 261 237 100 86 88 80 75 94 120 125 188 30 78 60 120 150 159 162 164 159 163 158 154 155 149 152 148 151 141 135 140 134 125 124 113 112 111 109 109 110 109 112 110 106 104 103
44 19 279 57 226 106 103 99 107 99 95 112 78 19 18 54 97 138 160 154 155 162 153 162 166 156 157 160 156 154 148 136 141 145 161 145 125 123 119 121 118 113 113 117 112 111 106 104 108
329 284 242 253 108 81 112 112 123 125 95 55 76 94 84 90 128 153 151 153 159 161 160 172 170 174 176 171 161 155 148 146 167 182 169 146 132 127 125 124 124 117 119 115 117 114 112 112 110
319 243 230 137 105 112 108 93 143 136 82 51 313 99 95 107 129 143 149 154 158 156 170 176 169 171 178 181 173 168 164 170 180 162 158 131 130 128 128 131 128 125 126 119 123 116 112 109 102
237 287 208 139 98 93 116 133 164 128 59 95 110 124 109 138 142 149 153 157 157 158 171 174 174 178 181 189 184 180 174 172 160 149 137 133 136 131 134 138 132 134 132 132 129 127 119 109 95
331 325 41 125 108 103 90 119 160 113 98 84 127 135 118 156 154 154 157 155 158 163 178 171 164 177 182 187 184 183 170 157 157 146 143 142 140 129 134 136 134 136 141 143 135 133 119 109 95
327 282 121 159 172 105 124 111 161 214 82 124 123 95 165 167 158 156 161 157 157 161 174 170 166 181 175 179 173 173 157 138 153 144 147 142 143 133 134 124 131 132 141 143 140 140 124 97 76
329 298 46 56 246 108 134 192 159 173 150 165 65 38 146 166 158 158 161 166 167 162 164 169 180 173 168 163 163 152 143 146 152 145 151 144 131 119 110 160 137 131 134 133 129 119 88 66 43
303 335 21 360 341 278 65 315 163 191 168 173 106 113 147 157 162 163 165 170 174 171 171 170 162 153 151 155 153 154 145 151 158 159 162 158 135 152 163 145 137 128 121 112 107 89 64 48 56
31 336 357 28 346 250 242 228 176 249 200 206 150 150 155 163 168 171 172 173 176 175 170 174 172 154 163 166 167 162 147 155 175 175 167 154 143 140 133 151 131 130 119 101 79 39 37 295 332
298 2 309 347 341 220 234 281 250 245 15 107 143 158 162 171 176 179 180 178 177 178 177 173 169 166 164 171 177 171 189 192 186 170 168 165 151 156 158 152 160 137 142 134 77 112 248 331 324
288 347 348 275 323 239 244 236 271 237 171 148 145 157 168 175 178 180 182 179 181 186 184 175 176 172 169 179 182 187 218 168 177 190 169 177 168 163 156 162 154 151 146 135 35 1 302 321 334
338 340 312 324 346 141 248 230 242 147 164 156 156 163 170 176 178 179 182 183 185 191 188 180 181 178 176 183 182 206 162 161 184 172 183 177 167 169 169 162 158 159 153 162 8 290 292 319 324
299 299 243 137 329 259 283 221 234 176 173 172 171 169 169 175 181 186 187 185 184 188 191 199 184 185 181 187 184 173 174 163 179 179 180 175 160 172 167 171 165 173 192 203 329 306 302 320 338
274 252 302 85 123 137 272 6 44 178 183 180 179 176 178 179 181 185 189 186 186 182 187 190 191 193 193 198 187 180 181 171 182 172 164 164 165 166 171 173 178 203 199 225 278 277 268 286 317
208 295 339 73 187 253 259 333 103 186 196 188 187 184 188 185 186 188 188 190 188 183 183 186 192 198 198 201 194 188 187 190 178 172 166 179 173 174 170 184 199 189 219 233 236 273 321 303 300
300 286 289 327 66 269 287 284 282 203 212 210 198 196 195 196 195 191 188 188 190 191 186 185 193 195 192 197 193 192 199 192 182 181 185 186 187 185 181 196 210 206 237 255 240 239 287 331 323
278 288 287 294 313 296 308 302 286 230 211 212 210 204 204 205 197 194 192 192 190 192 193 192 193 193 189 188 190 191 194 187 185 191 190 189 192 196 195 199 211 206 205 218 248 273 306 305 326
251 268 275 326 2 300 315 306 276 219 217 214 209 209 210 205 197 198 197 196 195 194 193 194 194 196 187 187 184 190 188 193 189 196 198 200 205 206 205 203 211 218 230 234 233 253 254 307 321
241 261 286 303 303 279 286 282 196 170 213 222 218 216 213 208 202 200 201 200 198 199 195 196 196 195 192 191 189 189 187 194 200 203 205 207 210 221 218 215 202 218 196 241 236 274 285 304 326
253 251 274 282 275 280 63 295 269 233 232 214 220 219 217 212 207 203 202 202 203 202 198 198 201 200 197 196 195 192 194 194 202 204 213 212 224 229 223 222 224 220 216 228 241 258 238 270 289
260 271 262 270 268 283 273 248 279 200 255 248 209 221 223 219 211 206 202 204 204 201 198 196 204 205 198 198 193 200 196 204 209 201 208 216 229 226 220 226 235 231 232 252 236 241 246 250 254
258 222 226 246 254 258 256 245 280 68 220 301 305 250 215 218 214 209 206 203 201 200 198 195 202 206 205 204 203 203 205 196 202 204 214 214 225 230 231 229 230 230 232 245 250 251 253 250 247
202 222 232 219 223 254 48 257 269 299 292 280 292 292 251 220 211 206 203 199 198 197 197 196 200 206 208 206 211 212 212 210 206 208 217 217 227 228 232 230 235 238 246 243 236 246 243 254 256
209 238 249 242 252 268 127 253 244 276 295 289 279 268 274 228 206 204 201 197 196 196 196 196 201 206 210 212 212 216 217 216 220 227 221 232 226 227 230 237 240 243 246 250 250 251 264 265 267
224 233 251 272 260 265 273 274 258 261 293 273 235 246 271 235 208 199 197 198 197 195 197 199 202 208 210 213 215 218 218 216 218 221 233 230 223 223 227 234 240 241 244 248 251 260 256 262 256
252 277 215 233 264 267 269 265 265 294 349 326 241 240 299 247 205 197 195 195 196 196 199 201 204 208 209 208 214 217 219 221 222 227 226 222 226 232 226 235 242 245 246 254 258 265 262 263 258
183 228 235 278 278 281 280 273 38 258 291 302 298 312 295 276 205 196 195 194 195 196 197 199 201 203 208 210 212 214 217 219 223 226 228 229 232 236 237 239 239 243 246 250 256 262 257 261 267
285 227 225 229 238 236 273 280 299 278 305 314 299 298 299 263 201 192 192 191 193 197 196 199 200 204 209 213 216 217 215 214 217 224 228 232 236 238 241 244 247 248 250 249 256 264 259 261 264
Height
1525 1526 1526 1526 1525 1522 1513 1518 1511 1514 1516 1523 1526 1524 1523 1527 1526 1538 1541 1543 1544 1549 1551 1553 1556 1559 1561 1562 1564 1565 1567 1568 1570 1571 1571 1571 1572 1573 1574 1574 1575 1576 1576 1578 1578 1579 1579 1579 1580
1529 1526 1527 1525 1519 1536 1529 1515 1518 1521 1525 1526 1527 1528 1526 1528 1535 1538 1541 1543 1548 1550 1552 1556 1557 1560 1562 1564 1565 1567 1568 1570 1571 1572 1572 1573 1574 1574 1575 1577 1577 1578 1579 1580 1580 1580 1581 1581 1583
1527 1526 1526 1522 1525 1525 1526 1519 1522 1525 1527 1527 1527 1529 1530 1534 1538 1539 1541 1545 1550 1553 1556 1556 1558 1561 1563 1565 1566 1568 1570 1572 1572 1573 1574 1574 1575 1576 1577 1578 1579 1580 1581 1582 1582 1583 1584 1584 1585
1529 1529 1526 1520 1521 1523 1516 1519 1522 1525 1528 1529 1529 1528 1535 1537 1539 1541 1542 1547 1551 1555 1558 1557 1560 1562 1564 1566 1568 1570 1571 1573 1573 1575 1574 1575 1576 1577 1578 1579 1581 1582 1583 1583 1584 1585 1586 1587 1588
1530 1527 1518 1523 1522 1519 1519 1522 1523 1524 1527 1528 1530 1529 1535 1539 1541 1542 1544 1549 1551 1556 1559 1558 1560 1563 1563 1567 1569 1571 1573 1574 1574 1576 1576 1577 1578 1579 1580 1581 1583 1584 1584 1585 1586 1587 1588 1589 1590
1524 1525 1519 1525 1521 1520 1521 1523 1523 1524 1528 1530 1530 1531 1536 1540 1542 1545 1548 1550 1551 1556 1559 1560 1562 1565 1565 1569 1570 1571 1574 1574 1575 1577 1578 1578 1580 1581 1581 1582 1584 1585 1586 1587 1588 1589 1589 1590 1591
1524 1519 1526 1519 1523 1524 1521 1523 1523 1524 1527 1528 1531 1529 1537 1541 1543 1546 1548 1549 1554 1556 1557 1559 1562 1565 1567 1569 1571 1572 1575 1575 1577 1578 1579 1580 1581 1582 1582 1584 1586 1586 1588 1589 1590 1591 1591 1591 1591
1525 1521 1521 1523 1522 1526 1523 1523 1525 1526 1527 1531 1532 1527 1534 1539 1543 1546 1549 1552 1554 1557 1558 1559 1562 1566 1568 1569 1571 1573 1576 1576 1579 1579 1581 1581 1583 1584 1585 1586 1587 1588 1589 1590 1591 1592 1593 1592 1593
1527 1518 1520 1521 1519 1521 1523 1522 1526 1527 1529 1531 1532 1532 1534 1538 1543 1546 1549 1553 1555 1557 1560 1562 1565 1566 1567 1570 1572 1573 1575 1576 1578 1581 1582 1582 1586 1587 1588 1588 1589 1589 1590 1591 1592 1593 1594 1594 1594
1525 1520 1521 1520 1518 1520 1523 1523 1525 1526 1527 1529 1532 1534 1535 1539 1543 1546 1549 1552 1555 1558 1560 1562 1565 1567 1569 1571 1571 1574 1575 1575 1579 1581 1582 1583 1585 1590 1591 1589 1590 1591 1591 1592 1593 1594 1595 1596 1599
1524 1523 1521 1520 1521 1523 1522 1524 1524 1523 1524 1525 1528 1534 1537 1540 1543 1545 1548 1551 1554 1558 1561 1563 1565 1567 1568 1570 1571 1573 1576 1576 1579 1581 1583 1584 1588 1590 1592 1592 1593 1594 1593 1597 1596 1596 1598 1598 1599
1524 1522 1523 1523 1523 1522 1523 1524 1522 1524 1525 1527 1529 1533 1536 1539 1542 1545 1547 1551 1553 1557 1560 1563 1564 1567 1569 1569 1570 1573 1574 1576 1578 1582 1584 1586 1589 1590 1592 1594 1594 1595 1597 1596 1597 1599 1597 1597 1597
1521 1522 1523 1523 1522 1523 1524 1523 1523 1524 1527 1528 1530 1534 1536 1539 1542 1544 1547 1550 1553 1556 1558 1560 1563 1565 1566 1567 1569 1570 1573 1574 1579 1582 1584 1587 1589 1590 1592 1593 1595 1595 1596 1598 1598 1598 1598 1598 1598
1522 1521 1521 1522 1522 1522 1522 1521 1523 1522 1526 1529 1531 1533 1536 1538 1541 1544 1547 1549 1552 1555 1557 1560 1563 1563 1566 1567 1568 1569 1573 1578 1578 1583 1586 1586 1589 1589 1592 1593 1595 1596 1597 1598 1598 1597 1598 1598 1598
1522 1518 1517 1519 1521 1520 1522 1519 1519 1521 1525 1528 1530 1532 1535 1537 1540 1543 1546 1548 1551 1553 1555 1556 1561 1563 1565 1566 1568 1570 1573 1579 1582 1582 1583 1585 1588 1588 1591 1594 1595 1596 1596 1597 1598 1598 1598 1599 1598
1517 1515 1518 1517 1520 1521 1521 1516 1517 1520 1523 1525 1528 1531 1534 1536 1539 1542 1545 1547 1549 1551 1554 1556 1559 1562 1564 1565 1568 1570 1574 1577 1579 1581 1584 1586 1587 1588 1590 1594 1596 1596 1596 1598 1599 1599 1599 1599 1598
1513 1517 1518 1515 1519 1519 1519 1515 1518 1520 1521 1522 1525 1528 1532 1535 1537 1540 1543 1546 1548 1550 1551 1554 1557 1560 1563 1566 1568 1570 1573 1576 1578 1580 1585 1585 1587 1589 1592 1594 1595 1595 1597 1598 1598 1599 1598 1599 1598
1513 1519 1516 1517 1515 1516 1514 1512 1510 1515 1518 1519 1522 1525 1529 1531 1534 1537 1540 1543 1547 1549 1550 1553 1555 1557 1560 1564 1568 1571 1573 1575 1579 1582 1585 1585 1588 1589 1591 1592 1593 1595 1597 1597 1597 1597 1598 1598 1598
1515 1517 1517 1511 1511 1515 1508 1506 1504 1506 1513 1514 1517 1520 1523 1527 1531 1534 1537 1540 1544 1547 1549 1551 1553 1555 1557 1561 1565 1569 1572 1574 1577 1580 1582 1585 1586 1588 1590 1593 1593 1594 1595 1595 1596 1597 1598 1598 1597
1513 1515 1513 1509 1513 1513 1504 1502 1495 1498 1503 1507 1511 1514 1517 1521 1526 1530 1534 1537 1540 1543 1545 1548 1551 1553 1556 1560 1565 1568 1571 1572 1576 1579 1581 1583 1585 1587 1589 1591 1593 1593 1595 1595 1595 1596 1597 1597 1597
1512 1512 1510 1515 1512 1505 1506 1495 1489 1493 1498 1502 1505 1508 1511 1514 1519 1525 1529 1533 1536 1539 1540 1544 1547 1549 1553 1557 1560 1564 1568 1571 1574 1577 1579 1582 1584 1585 1587 1589 1591 1592 1593 1595 1595 1595 1595 1595 1596
1511 1502 1506 1512 1514 1515 1504 1516 1490 1484 1489 1494 1499 1501 1503 1507 1512 1518 1524 1529 1531 1535 1538 1540 1544 1547 1550 1554 1558 1563 1565 1569 1572 1575 1578 1581 1582 1583 1585 1586 1588 1590 1592 1592 1594 1594 1594 1594 1595
1509 1502 1506 1507 1509 1507 1501 1509 1487 1482 1486 1481 1483 1491 1497 1501 1506 1510 1516 1521 1526 1531 1534 1538 1541 1544 1548 1551 1556 1559 1564 1569 1571 1575 1577 1578 1579 1581 1583 1584 1586 1587 1589 1590 1590 1590 1591 1592 1593
1504 1507 1506 1505 1503 1513 1492 1497 1486 1479 1481 1478 1478 1481 1487 1493 1498 1504 1510 1516 1522 1527 1531 1535 1537 1541 1545 1549 1552 1556 1561 1566 1570 1572 1574 1576 1578 1578 1579 1581 1583 1584 1586 1586 1587 1587 1587 1588 1588
1503 1502 1513 1518 1510 1508 1483 1496 1486 1473 1472 1474 1475 1476 1479 1484 1490 1496 1502 1508 1516 1521 1526 1530 1533 1537 1541 1545 1549 1553 1557 1561 1564 1568 1571 1573 1575 1576 1577 1578 1579 1580 1581 1583 1583 1583 1584 1585 1585
1500 1497 1501 1517 1507 1492 1487 1500 1481 1467 1469 1469 1473 1474 1475 1478 1481 1488 1496 1502 1509 1515 1520 1525 1528 1532 1537 1541 1545 1549 1553 1556 1560 1563 1567 1569 1571 1573 1574 1575 1575 1576 1578 1579 1580 1581 1582 1583 1583
1489 1500 1484 1490 1480 1498 1484 1474 1464 1462 1464 1462 1465 1469 1471 1475 1477 1482 1490 1497 1503 1509 1514 1518 1523 1528 1532 1536 1541 1544 1548 1552 1555 1558 1561 1565 1567 1569 1570 1571 1572 1573 1574 1575 1576 1577 1578 1579 1579
1485 1480 1496 1490 1512 1511 1485 1479 1480 1469 1464 1461 1462 1465 1468 1472 1475 1479 1485 1492 1498 1503 1509 1513 1519 1523 1527 1532 1535 1539 1542 1546 1549 1552 1555 1558 1563 1564 1566 1567 1568 1569 1570 1571 1572 1573 1574 1573 1574
1486 1488 1484 1476 1477 1493 1497 1478 1452 1462 1460 1460 1460 1463 1465 1468 1471 1476 1482 1488 1493 1498 1504 1508 1514 1519 1523 1527 1531 1535 1538 1541 1544 1547 1549 1552 1555 1557 1560 1562 1564 1565 1566 1567 1567 1569 1570 1570 1569
1467 1468 1471 1483 1490 1480 1485 1479 1453 1457 1456 1457 1458 1460 1463 1464 1467 1472 1478 1483 1489 1493 1498 1503 1509 1514 1518 1522 1526 1529 1534 1537 1540 1541 1544 1547 1550 1552 1554 1557 1558 1560 1561 1563 1562 1563 1565 1565 1565